Location: Brno
(49.2000°N, 16.6330°E)
Time: 21:11:37
(UTC+02:00)

Explorer 11/Cluster Stage 4 - Pass Details

Date: 30 July 2021
Orbit: 467 x 1257 km, 28.8° (Epoch: 17 September)

Event Time Altitude Azimuth Distance (km) Brightness Sun altitude
Rises 12:16:48 0° 232° (SW) 4,188 10.4 58.0°
Reaches altitude 10° 12:21:15 10° 211° (SSW) 3,177 10.1 58.2°
Maximum altitude 12:25:24 15° 180° (S) 2,723 10.1 58.4°
Drops below altitude 10° 12:29:21 10° 148° (SSE) 2,984 10.2 58.6°
Sets 12:33:18 0° 127° (SE) 3,795 10.4 58.7°
